Theta_e
328 327 329 326 326 326 326 326 326 326 326 325 325 324 323 323 325 326 328 336 336 336 338 339 341 339 339 341 341 340 340 341 343 344 344 344 343 342 342 343 346 346 347
329 325 328 327 325 326 326 325 324 326 326 326 326 327 326 326 325 326 325 327 337 334 333 335 338 340 337 337 338 336 337 338 339 340 340 340 339 340 341 342 343 347 347
328 327 328 326 325 326 325 322 322 323 323 324 325 322 324 325 325 326 327 328 330 334 330 332 334 332 332 334 335 336 334 335 336 336 336 335 335 337 339 342 342 344 346
329 326 326 326 325 327 323 320 320 320 320 322 321 321 321 325 324 325 327 328 330 330 329 326 326 327 328 325 327 328 334 332 334 336 335 335 335 336 337 337 339 342 344
325 326 325 326 325 324 322 319 319 319 318 319 317 318 322 324 324 323 324 327 329 330 328 326 323 323 325 325 324 326 327 334 333 333 335 336 334 334 334 334 335 336 338
325 326 324 326 323 322 321 320 318 319 318 319 316 317 323 321 324 323 323 324 325 327 327 326 323 322 323 324 326 325 326 330 331 331 331 332 332 331 331 331 331 333 335
325 327 323 323 322 322 320 319 317 315 316 317 314 314 317 321 321 322 323 323 323 324 325 326 325 325 323 324 325 327 328 327 329 330 328 327 328 329 329 329 329 329 330
327 324 326 322 323 320 318 318 316 314 313 315 312 310 309 316 314 321 321 321 322 324 323 325 324 323 324 324 323 326 325 326 325 326 323 324 324 325 329 327 327 328 328
326 327 326 325 323 320 316 317 315 314 310 312 314 312 306 304 309 317 319 319 320 320 322 323 323 322 323 322 324 325 325 326 324 324 325 325 327 326 325 329 328 327 327
327 325 325 324 324 322 319 317 317 316 314 310 311 314 317 314 309 306 315 317 319 319 319 320 320 322 322 322 324 324 325 325 324 324 326 327 327 325 325 327 327 327 326
326 323 325 325 323 320 320 319 319 316 317 313 310 311 312 314 314 309 305 309 315 319 319 320 319 319 321 321 321 322 322 321 320 321 321 321 321 322 323 324 325 326 326
326 325 324 325 324 323 321 320 320 319 318 317 316 314 311 310 310 310 308 309 309 314 318 319 318 318 319 320 323 321 319 318 317 316 317 318 319 320 320 321 321 322 324
324 326 327 325 323 323 322 322 319 320 317 316 316 315 314 312 313 313 311 309 309 313 315 317 319 318 320 320 319 321 320 318 315 313 314 315 316 317 318 318 319 319 319
324 327 326 325 324 323 319 322 320 319 319 317 317 317 314 313 314 314 312 310 307 309 313 311 316 318 319 319 319 317 318 318 315 314 314 314 315 315 316 316 316 316 316
323 325 326 325 324 323 322 323 320 320 319 318 317 317 315 314 314 314 313 314 309 304 306 311 313 317 317 318 318 316 317 318 316 314 314 313 314 314 315 315 315 315 315
327 325 322 324 324 321 320 321 321 320 318 318 315 317 316 316 315 315 314 315 314 310 306 311 313 317 318 319 317 315 317 318 317 316 315 314 313 313 314 313 313 313 313
328 324 323 322 323 320 320 319 321 320 318 318 318 315 315 316 315 315 314 314 313 312 307 310 313 315 314 314 315 316 316 315 315 319 317 315 314 313 313 312 312 312 312
328 325 324 322 320 321 320 319 318 320 318 317 318 318 315 315 316 316 314 313 313 313 310 306 310 311 311 314 314 314 315 315 314 318 318 316 314 313 312 312 311 311 311
328 327 325 323 323 320 318 319 321 319 319 319 319 318 318 317 315 315 315 313 313 312 311 310 308 311 310 313 312 313 314 314 316 319 318 316 315 314 313 312 311 311 309
327 326 326 325 324 323 322 321 319 321 320 319 320 320 319 318 317 316 312 313 312 311 310 309 309 309 309 311 311 309 308 312 311 314 316 314 314 314 313 312 312 312 310
326 326 326 325 325 324 321 322 323 322 321 320 319 320 320 321 319 316 312 311 312 310 310 307 307 308 307 308 307 308 307 308 309 312 311 310 311 311 311 313 312 312 309
327 327 326 324 324 323 316 314 316 321 321 321 319 319 321 321 320 315 314 313 313 311 309 308 308 306 306 307 308 307 308 306 303 310 309 309 311 309 307 306 309 306 305
330 328 326 325 323 324 314 311 311 318 320 321 321 320 320 319 319 319 315 312 312 311 311 310 309 310 309 310 310 308 307 307 307 309 309 306 311 308 309 306 306 305 304
328 327 326 326 325 325 314 311 309 316 321 322 322 321 321 320 320 318 319 317 317 317 314 313 312 313 314 315 313 312 309 309 309 310 311 305 309 306 307 305 305 305 304
328 326 326 326 325 325 314 310 311 320 321 322 323 322 321 321 315 311 317 316 316 316 317 312 309 311 308 307 306 307 306 305 304 305 312 306 305 304 305 303 307 307 304
326 326 324 326 322 326 315 309 310 320 319 320 322 322 314 316 311 307 315 316 314 314 315 317 316 312 307 309 307 308 308 306 306 305 310 304 304 302 299 304 305 305 304
Wind_Speed
6 8 6 6 6 6 5 4 5 6 6 7 6 4 5 5 6 4 3 2 2 4 10 12 14 12 11 11 8 7 6 6 9 6 6 5 5 5 4 1 1 3 2
5 7 6 5 6 7 5 6 8 6 5 5 6 4 6 4 3 5 3 4 7 3 6 11 12 14 10 11 10 7 6 4 8 7 6 5 4 2 3 3 2 5 7
7 9 4 6 7 9 10 10 10 11 9 6 6 7 8 3 4 4 4 5 5 5 5 8 14 9 11 11 11 15 6 4 7 6 6 5 5 4 4 4 3 4 10
7 9 5 6 8 6 9 8 9 9 9 10 6 7 6 1 4 6 3 3 4 3 3 3 6 2 5 6 13 16 16 11 7 7 7 7 7 6 6 6 6 5 6
9 7 6 6 9 5 6 7 9 9 9 8 9 10 7 3 5 6 7 6 5 3 3 4 4 1 6 1 3 8 10 18 13 6 9 10 10 9 8 8 7 7 5
9 7 7 7 8 5 7 6 8 9 9 5 9 9 7 4 5 6 5 4 4 4 3 4 2 2 8 8 4 2 3 14 5 8 8 7 7 8 7 7 7 6 6
7 5 6 7 8 6 8 9 7 10 9 8 7 9 7 7 6 5 6 5 5 5 5 5 3 2 3 7 3 6 3 1 11 13 9 10 10 5 5 5 6 6 5
6 6 5 6 6 7 9 8 9 7 8 10 8 8 4 2 8 4 4 5 5 4 5 4 4 3 1 2 7 9 8 8 4 5 6 4 9 9 6 2 3 4 4
5 5 5 3 5 5 5 5 7 8 5 7 10 4 5 4 10 3 3 3 6 4 3 2 2 3 4 4 5 6 9 9 3 0 2 5 8 8 7 7 3 3 2
5 5 5 6 5 4 5 4 4 3 4 6 7 5 4 5 3 6 4 2 3 4 4 3 3 2 4 4 7 8 10 10 5 4 7 9 8 5 6 6 4 3 2
8 7 6 5 5 5 3 1 3 4 2 3 3 7 9 6 3 4 8 8 4 3 2 2 2 1 2 5 4 7 10 11 6 5 4 4 2 2 2 2 4 5 4
5 6 6 4 4 4 2 2 2 3 4 3 3 5 5 5 5 3 5 9 8 4 3 3 0 1 2 3 6 7 6 7 4 3 3 4 4 5 5 3 3 4 7
3 4 3 3 3 3 4 5 2 3 3 5 5 4 4 5 5 2 3 5 4 4 2 1 1 1 2 4 4 8 8 7 5 2 2 2 2 3 4 4 5 5 5
3 4 2 2 4 4 5 6 2 2 2 4 4 5 4 6 5 4 3 3 6 3 2 1 2 2 2 4 5 5 4 8 6 5 3 3 3 4 5 5 6 6 6
5 5 3 2 3 2 0 4 4 3 4 4 3 2 4 3 4 5 3 4 2 3 3 4 1 2 1 3 5 2 6 9 8 8 8 7 7 7 9 8 8 9 9
3 5 6 2 4 5 4 3 4 4 5 4 4 4 3 3 5 4 4 3 2 4 3 3 4 2 2 3 4 3 6 12 11 11 11 10 10 9 9 9 9 10 11
4 5 5 5 5 5 5 4 5 6 6 6 5 5 3 5 3 4 3 3 3 2 4 6 3 2 3 4 2 3 4 5 5 10 15 13 12 11 11 11 11 12 12
5 5 5 5 6 6 6 6 6 6 6 6 5 5 6 3 5 4 4 5 4 3 3 5 4 4 3 4 4 5 4 4 4 4 15 14 13 13 13 13 12 14 15
3 5 5 6 7 6 6 7 7 7 7 6 6 5 6 6 5 3 3 5 4 4 4 4 4 3 2 2 3 3 5 5 4 6 14 17 16 17 17 15 16 16 16
5 6 6 6 7 8 8 8 8 6 5 6 6 6 7 7 6 5 3 5 5 5 6 4 4 2 1 2 2 3 4 3 4 5 11 12 16 19 19 16 16 17 17
5 7 6 7 8 7 7 8 6 6 7 8 8 8 8 7 8 8 4 5 4 5 5 6 7 4 1 1 3 3 4 4 5 6 5 3 4 6 7 14 13 16 11
7 6 7 8 8 7 11 11 10 7 8 9 9 9 9 10 12 14 13 13 9 6 6 5 6 6 4 3 3 1 3 2 4 5 2 4 4 5 4 4 10 8 9
6 7 8 9 11 11 13 13 13 8 8 8 9 10 9 9 5 6 10 15 14 15 16 8 8 9 7 5 4 4 3 3 7 8 3 5 3 3 4 2 2 5 10
7 8 9 10 12 12 15 16 14 8 9 10 11 13 12 12 11 10 7 8 8 8 11 9 11 12 10 9 6 4 4 5 7 9 6 5 3 3 5 4 5 9 10
7 9 10 12 13 14 16 16 12 8 9 11 11 12 12 11 13 12 8 8 8 8 7 9 10 16 15 13 7 1 5 4 7 7 3 3 2 1 2 2 4 8 8
10 9 12 13 14 14 12 13 11 8 7 8 12 11 13 13 12 10 7 8 6 9 6 5 5 6 12 12 14 8 6 6 5 7 1 1 1 1 3 2 2 1 4
Wind_Direction
19 336 327 352 13 334 338 342 349 319 312 312 321 342 312 282 295 308 345 14 332 349 351 326 274 265 254 250 230 228 223 236 243 220 221 219 218 227 210 200 192 186 200
20 337 328 1 1 322 322 1 348 329 314 316 312 320 287 281 311 301 289 296 179 126 18 353 318 265 326 297 275 241 223 208 233 217 211 215 204 177 206 174 120 155 145
31 336 356 16 344 324 25 11 354 340 335 320 345 337 304 42 291 294 349 350 22 123 67 30 19 79 42 7 6 330 279 222 219 178 171 181 177 161 132 111 134 120 156
30 340 4 14 343 332 40 10 343 330 329 325 352 304 301 311 320 16 83 50 26 9 12 68 353 61 113 63 36 19 308 267 255 190 157 160 140 125 119 110 88 84 155
24 355 3 22 340 355 42 21 340 332 331 346 343 321 323 15 36 26 0 41 49 13 319 90 29 238 252 148 27 24 8 288 239 225 154 142 122 108 98 93 86 77 78
30 17 355 35 351 28 35 22 342 335 323 341 334 324 318 27 44 10 2 20 40 22 303 356 160 199 242 207 186 216 300 316 202 149 68 71 113 105 102 94 88 79 70
30 37 357 24 353 7 36 13 354 341 329 8 343 330 299 57 46 9 352 360 21 23 11 24 331 157 215 239 110 60 144 255 65 69 51 27 17 69 106 106 105 98 81
26 22 9 31 333 340 40 13 3 351 348 356 345 309 339 13 11 17 357 342 31 23 349 354 53 54 115 207 189 143 119 116 32 114 94 2 344 329 320 147 133 122 107
45 24 12 25 352 31 35 22 360 1 352 341 348 359 339 1 327 344 343 316 351 332 331 30 37 72 73 102 115 157 150 149 183 246 111 239 242 248 309 294 216 170 146
92 40 32 5 17 24 46 24 359 345 346 346 335 338 281 273 312 320 328 324 295 331 331 330 15 46 96 97 124 112 109 96 109 147 192 219 233 251 210 265 259 235 223
91 54 32 9 27 5 72 26 358 330 346 315 319 326 328 328 336 310 315 334 357 342 314 322 7 1 150 162 133 110 103 96 83 62 42 42 19 10 340 324 312 299 274
108 63 26 14 20 359 7 23 340 26 351 315 325 312 327 317 311 335 325 322 332 321 303 204 176 261 266 155 151 136 120 112 119 77 6 27 14 8 349 6 345 328 302
43 67 35 12 344 348 349 8 324 108 359 321 317 317 314 326 335 315 304 318 308 307 330 120 119 145 104 128 145 160 178 160 157 175 242 304 338 314 308 324 329 332 326
24 79 18 359 333 10 9 350 321 347 313 306 324 327 327 328 327 331 305 297 316 321 325 330 29 90 76 150 172 206 185 175 176 184 200 253 260 272 267 271 274 276 279
337 13 324 327 313 325 194 320 336 323 332 297 316 313 294 304 315 312 297 321 301 312 311 328 338 317 212 151 173 176 142 191 206 202 205 208 233 249 260 265 273 280 276
290 300 304 298 281 292 219 263 296 301 286 283 274 282 315 297 292 311 327 303 320 287 283 261 250 267 309 329 176 186 166 196 218 216 218 219 221 231 249 256 264 270 275
258 275 288 287 268 272 252 219 262 274 265 278 284 291 279 285 302 296 304 307 307 7 324 315 323 201 213 252 220 239 245 243 237 226 208 218 221 221 232 253 269 272 271
241 247 276 288 298 277 267 229 244 266 268 277 271 288 283 280 306 311 327 316 294 216 212 278 284 294 235 205 217 228 235 258 254 238 202 212 221 229 237 241 244 253 257
272 257 250 259 269 275 286 268 240 247 257 272 286 280 282 277 264 273 308 308 316 316 312 248 259 268 266 259 239 260 230 235 245 270 202 215 220 225 230 231 238 242 248
256 256 247 254 255 265 268 266 275 263 282 286 284 275 270 273 267 250 259 287 299 325 303 310 275 214 261 310 272 291 297 244 236 242 225 218 222 229 229 225 235 243 244
266 279 267 259 259 257 266 258 263 271 273 273 274 279 278 276 251 229 225 243 279 286 310 308 315 319 296 338 246 241 250 293 299 252 237 250 211 219 238 238 242 254 268
257 264 276 282 279 276 275 246 247 257 262 269 273 275 276 272 252 218 218 229 230 241 257 272 285 293 294 314 308 356 314 337 292 284 217 271 169 226 174 198 231 242 279
253 260 266 268 272 269 262 269 252 251 257 265 272 270 271 272 260 239 223 229 237 231 231 243 255 260 270 270 288 297 284 280 275 276 275 263 249 224 166 112 248 263 279
251 256 261 263 266 268 259 258 258 247 249 256 259 263 263 263 264 265 237 236 234 224 220 223 231 248 247 255 242 247 258 254 272 279 224 221 248 243 172 165 194 231 260
255 257 260 264 262 265 255 258 258 246 245 265 264 263 254 248 250 243 228 237 253 260 254 251 259 224 230 247 245 274 269 266 289 288 217 168 262 313 170 173 229 238 307
267 270 270 266 268 273 278 269 282 263 270 266 266 271 266 250 232 230 217 241 248 258 264 275 294 256 244 250 244 205 225 245 254 286 161 73 60 46 309 183 256 264 308